This is the latest recevied weather packets stored in our database for station/object K8RRT. If no packets are shown the sender has not sent any weather packets the latest 10 day(s).
| Time | Temp. | Humidity | Pressure | Rain* | Wind** | Luminosity | Snow |
|---|---|---|---|---|---|---|---|
| 1777857785 | 10.56° C | 64% | 1010.9 hPa | 0 mm | - | 0 W/m² | - |
| 1777857483 | 11.11° C | 64% | 1010.8 hPa | 0 mm | - | 0 W/m² | - |
| 1777857179 | 11.11° C | 62% | 1010.6 hPa | 0 mm | - | 0 W/m² | - |
| 1777856874 | 11.11° C | 62% | 1010.9 hPa | 0 mm | - | 0 W/m² | - |
| 1777856570 | 11.67° C | 65% | 1010.9 hPa | 0 mm | - | 0 W/m² | - |
| 1777856268 | 11.67° C | 60% | 1010.9 hPa | 0 mm | - | 0 W/m² | - |
| 1777855964 | 11.67° C | 57% | 1010.8 hPa | 0 mm | - | 0 W/m² | - |
| 1777855662 | 11.11° C | 57% | 1010.7 hPa | 0 mm | - | 0 W/m² | - |
| 1777855359 | 11.11° C | 59% | 1011 hPa | 0 mm | - | 0 W/m² | - |
| 1777855055 | 11.67° C | 57% | 1011.1 hPa | 0 mm | - | 0 W/m² | - |
| 1777854752 | 11.67° C | 59% | 1010.8 hPa | 0 mm | - | 0 W/m² | - |
| 1777854449 | 12.22° C | 57% | 1010.8 hPa | 0 mm | - | 0 W/m² | - |
| 1777854146 | 12.78° C | 56% | 1010.6 hPa | 0 mm | - | 1 W/m² | - |
| 1777853844 | 12.78° C | 55% | 1010.7 hPa | 0 mm | - | 3 W/m² | - |
| 1777853540 | 12.78° C | 53% | 1010.8 hPa | 0 mm | - | 5 W/m² | - |
| 1777853237 | 13.33° C | 52% | 1010.9 hPa | 0 mm | - | 6 W/m² | - |
| 1777852934 | 13.89° C | 50% | 1011 hPa | 0 mm | - | 10 W/m² | - |
| 1777852633 | 14.44° C | 47% | 1010.7 hPa | 0 mm | - | 13 W/m² | - |
| 1777852329 | 15° C | 42% | 1010.8 hPa | 0 mm | - | 18 W/m² | - |
| 1777852027 | 15.56° C | 42% | 1010.7 hPa | 0 mm | - | 23 W/m² | - |
| 1777851725 | 15.56° C | 41% | 1010.7 hPa | 0 mm | - | 32 W/m² | - |
| 1777851421 | 15.56° C | 39% | 1010.5 hPa | 0 mm | - | 48 W/m² | - |
| 1777851117 | 15.56° C | 41% | 1010.7 hPa | 0 mm | - | 29 W/m² | - |
| 1777850814 | 15.56° C | 42% | 1010.7 hPa | 0 mm | - | 36 W/m² | - |
| 1777850511 | 15.56° C | 39% | 1010.9 hPa | 0 mm | - | 62 W/m² | - |
* Rain latest hour (hover to see other rain measurements)
** Current wind speed in m/s (hover to see current wind gust speed)